Location: Mount Graham
(32.7016°N, 109.8912°W)
Time: 18:44:48
(UTC-07:00)

Daily predictions for brighter satellites

Satellite Brightness Start Highest point End
(mag) Time Altitude Azimuth Time Altitude Azimuth Time Altitude Azimuth
Cosmos 1371 Rocket 4.1 19:50:56 10° NNW 19:56:07 85° WSW 20:01:16 10° SSE
Cosmos 158 Rocket 4.1 19:52:12 10° S 19:57:28 64° ESE 20:02:38 10° NNE
Cosmos 1655 Rocket 4.1 19:52:00 10° N 19:58:13 65° E 20:04:22 10° SSE
Cosmos 2263 Rocket 2.5 19:53:08 10° SSW 19:58:49 74° WNW 20:04:30 10° NNE
Cosmos 1939 Rocket 3.0 19:57:06 10° SSE 20:01:09 64° ENE 20:05:10 10° N
Spot 2 Rocket 4.3 19:58:00 10° SE 20:02:28 33° ENE 20:06:58 10° N
Cosmos 1452 Rocket 4.5 20:00:12 10° N 20:04:54 32° ENE 20:09:34 10° SE
Cosmos 2056 Rocket 3.6 20:04:19 10° NNW 20:09:29 81° WSW 20:14:44 10° SSE
Cosmos 1603 4.0 20:04:24 10° NNW 20:10:06 72° WSW 20:15:48 10° S
Cosmos 1758 3.6 20:08:49 10° N 20:12:53 71° W 20:16:54 10° S
Cosmos 1624 Rocket 4.4 20:08:50 10° NNW 20:14:08 68° WSW 20:19:23 10° S
Cosmos 1378 3.9 20:11:34 10° SSW 20:15:12 54° W 20:18:51 10° N
Cosmos 1707 2.7 20:12:14 10° S 20:16:05 88° E 20:19:57 10° N
Cosmos 972 4.4 20:15:39 10° SSW 20:20:41 88° ESE 20:25:34 10° NNE
H-2A R/B 3.5 20:21:14 12° ESE 20:24:47 23° ENE 20:28:53 10° NNE
Cosmos 1315 Rocket 3.4 20:22:12 10° SSE 20:25:56 37° E 20:29:43 10° NNE
SJ-11-01 4.3 20:21:44 10° SSE 20:26:29 83° ENE 20:31:14 10° N
Cosmos 1607 4.0 20:22:20 10° NNW 20:28:43 76° ENE 20:34:11 14° SSE
Meteor 2-11 Rocket 4.4 20:23:04 10° S 20:29:08 86° E 20:35:13 10° N
Resurs 1-3 3.7 20:26:26 10° S 20:30:49 80° WSW 20:35:12 10° NNW
OAO 3 Copernicus 4.5 20:26:31 10° WNW 20:31:35 73° N 20:36:22 11° E
Cosmos 1953 2.9 20:27:54 10° NNW 20:31:49 56° W 20:35:44 10° S
Cosmos 1269 Rocket 4.3 20:27:27 10° S 20:32:29 47° ESE 20:37:33 10° NNE
USA 186 3.5 20:30:51 10° SSW 20:33:51 31° W 20:36:42 10° NNW
Hubble Space Telescope 2.5 20:32:47 10° WSW 20:35:49 20° SSW 20:37:50 14° SSE
Cosmos 1812 Rocket 3.8 20:38:37 10° N 20:42:57 71° W 20:47:18 10° S
ERS-2 2.2 20:40:04 13° S 20:43:17 75° WSW 20:46:58 10° NNW
Centaur D-1A AC-31 2.8 20:44:20 10° WSW 20:46:22 14° SSW 20:47:33 12° S
Cosmos 1953 Rocket 3.6 20:43:15 14° S 20:46:53 55° E 20:51:10 10° NNE
Cosmos 2278 Rocket 3.8 20:50:05 15° E 20:50:05 15° E 20:53:06 10° ENE
Cosmos 1726 4.5 20:49:28 10° ENE 20:50:03 10° ENE 20:50:03 10° ENE
Cosmos 1943 3.8 20:46:21 10° NNW 20:51:50 53° WSW 20:57:02 11° S
Cosmos 1758 Rocket 3.5 20:47:52 10° S 20:52:19 84° E 20:56:46 10° N
Cosmos 1400 Rocket 4.5 20:49:50 10° SW 20:53:32 34° WNW 20:57:13 10° NNW
Cosmos 1238 Rocket 2.1 20:52:45 34° SSE 20:53:45 55° E 20:56:39 10° NNE
Resurs 01 Rocket 2.6 20:49:53 10° S 20:54:05 44° W 20:58:19 10° NNW
OAO 3 Rocket 3.5 20:49:57 10° W 20:54:53 68° N 20:59:32 11° ENE
Cosmos 1932 4.5 20:49:16 10° NNW 20:55:28 67° ENE 20:59:17 24° SE
Lacrosse 5 3.1 20:50:47 10° WSW 20:55:37 45° NW 21:00:29 10° NNE
SL-8 R/B 4.2 20:51:16 10° WSW 20:56:02 64° NW 21:00:50 10° NE
CZ-3 Stage 3 3.4 20:53:45 10° W 20:57:11 72° S 21:13:12 10° E
SEDSat Delta rocket 4.2 20:53:18 10° SW 20:57:42 27° SSE 20:58:14 26° SSE
Timation 1 Rocket 4.3 20:52:57 10° S 20:58:47 61° ESE 21:04:39 10° NNE
ARGOS 3.3 20:55:28 22° SSE 20:58:54 61° ENE 21:04:15 10° N
Helios 1B rocket 4.5 20:58:26 10° ENE 20:59:36 13° ENE 20:59:36 13° ENE
ATLAS 2AS CENTAUR R/B 3.0 20:54:04 10° SSW 21:01:44 89° ESE 21:09:52 10° NNE
Aureole 1 Rocket 4.5 21:03:15 10° SW 21:05:55 27° WNW 21:08:58 10° N
Cosmos 1346 Rocket 3.4 21:03:39 10° N 21:07:28 41° E 21:08:20 36° ESE
Iridium 4 Rocket 3.9 21:01:53 10° S 21:07:38 73° W 21:13:02 10° N
ERS-1 Rocket 3.5 21:06:46 29° ESE 21:08:44 42° ENE 21:13:27 10° N
MetOp-A 4.1 21:06:09 26° SSE 21:09:15 74° ENE 21:14:36 10° N
Cosmos 1844 Rocket 2.7 21:05:42 10° SSW 21:11:23 88° WNW 21:17:04 10° NNE
Cosmos 1844 3.6 21:05:49 10° S 21:11:26 69° ESE 21:17:09 10° NNE
SL-08 RB Rocket 3.7 21:13:46 35° SSE 21:15:39 69° ENE 21:20:19 10° N
Meteor 1-24 Rocket 4.1 21:14:44 10° SSW 21:20:43 74° W 21:26:46 10° N
BREEZE-M R/B 3.8 21:20:17 10° WNW 21:22:07 21° WSW 21:22:07 21° WSW
Cosmos 921 Rocket 3.5 21:21:04 10° N 21:25:22 44° ENE 21:26:03 41° E
Aurora 2 Rocket 4.2 21:21:28 10° WSW 21:27:49 46° S 21:31:38 30° ESE
USA 215 3.6 21:27:48 28° SSE 21:31:10 54° SW 21:37:34 10° NW
ATLAS 5 CENTAUR R/B 4.0 21:35:22 11° ENE 21:35:22 11° ENE 21:35:37 10° ENE
Cosmos 1244 Rocket 4.4 21:26:56 10° N 21:33:20 85° E 21:36:18 34° S
Cosmos 1437 3.0 21:30:28 10° NNW 21:33:28 63° W 21:33:28 63° W
Cosmos 1745 Rocket 4.5 21:30:13 10° N 21:36:12 43° E 21:37:41 37° ESE
Cosmos 1908 3.1 21:34:12 10° N 21:38:00 71° ENE 21:38:00 71° ENE
NOSS 3-4 (A) 3.6 21:37:55 41° SSE 21:39:21 49° ESE 21:45:22 10° NE
NOSS 3-4 (C) 3.6 21:38:08 42° SSE 21:39:27 49° ESE 21:45:26 10° NE
Cosmos 724 4.5 21:35:27 10° NNW 21:41:26 62° ENE 21:43:15 44° ESE
SL-08 R/B 4.5 21:36:27 10° N 21:42:34 64° E 21:44:22 45° SE
Cosmos 1461 3.6 21:44:19 44° ENE 21:44:19 44° ENE 21:48:00 10° NE
Cosmos 220 Rocket 3.8 21:49:51 87° SSE 21:49:54 88° E 21:54:08 10° NNE
Terra 2.7 21:53:44 36° ENE 21:53:44 36° ENE 21:57:59 10° N
Cosmos 1340 3.4 21:50:01 10° N 21:52:54 45° NNE 21:52:54 45° NNE
IGS 5A 4.3 21:55:38 38° NE 21:55:38 38° NE 21:58:55 10° N
Meteor 2-1 Rocket 4.3 21:51:14 10° N 21:57:11 83° W 21:58:47 51° S
S3M 4.0 21:54:48 36° S 21:57:36 83° W 22:04:00 10° N
CZ-2C R/B 3.7 21:54:50 10° NNE 21:58:36 30° ENE 21:58:36 30° ENE
Cosmos 1674 4.4 22:00:30 25° WSW 22:01:34 29° W 22:04:56 10° NNW
SPOT 1/Viking Rocket 3.4 22:02:58 70° S 22:03:35 88° W 22:08:44 10° NNW
H-2A R/B 3.2 22:01:51 27° SW 22:03:54 37° W 22:08:50 10° NNW
Cosmos 1110 Rocket 3.9 22:00:55 10° NNW 22:06:05 75° WSW 22:06:36 68° SSW
Cosmos-2242 4.5 22:04:00 10° NNW 22:07:51 30° W 22:08:52 27° WSW
Cosmos 1300 4.2 22:04:33 10° N 22:06:47 30° NNE 22:06:47 30° NNE
ATLAS 3B CENTAUR R/B 3.5 21:54:46 10° WSW 22:11:36 50° S 22:13:13 46° SE
Cosmos 2084 4.4 22:09:32 10° NW 22:12:18 38° WNW 22:12:18 38° WNW
Cosmos 1842 Rocket 3.9 22:14:23 10° N 22:18:07 62° NW 22:18:07 62° NW
Cosmos 1331 Rocket 4.2 22:15:14 10° NNW 22:20:22 61° WSW 22:20:36 61° WSW
Helios 1A 3.9 22:22:36 44° WNW 22:22:36 44° WNW 22:26:07 10° NNW
Cosmos 1726 3.8 22:22:00 10° NNW 22:24:37 31° WNW 22:24:37 31° WNW
SPOT 5 3.6 22:27:04 45° WSW 22:27:23 46° W 22:32:22 10° NNW
USA 238 DEB 3.7 22:23:16 10° NNW 22:30:28 80° WSW 22:31:39 64° S
USA 238 3.7 22:23:22 10° NNW 22:30:34 81° WSW 22:31:45 65° S
ATLAS 3B R/B 2.4 22:24:24 10° NNW 22:31:01 78° ENE 22:31:41 71° ESE
Cosmos 2278 Rocket 2.7 22:31:51 42° WSW 22:33:27 56° WNW 22:39:02 10° N
Helios 1B rocket 3.9 22:32:20 10° N 22:35:56 33° WNW 22:35:56 33° WNW
Cosmos 2315 Rocket 3.8 22:36:49 80° SE 22:37:06 83° E 22:43:28 10° N
Cosmos 883 Rocket 4.5 22:36:17 63° SW 22:37:08 72° W 22:43:20 10° N
OAO 3 Rocket 3.9 22:33:42 10° WNW 22:37:20 49° WNW 22:37:20 49° WNW
NOSS 3-2 (A) 4.0 22:35:42 10° NNW 22:43:32 81° ENE 22:45:04 63° SE
Cosmos 1302 Rocket 4.4 22:42:35 10° NNW 22:47:10 58° WNW 22:47:10 58° WNW
COSMOS 2406 4.0 22:45:16 10° NW 22:50:32 42° WSW 22:50:32 42° WSW
CZ-2C R/B 3.4 22:50:50 70° W 22:50:50 70° W 22:56:29 10° NNW
Cosmos 2221 4.0 22:53:14 10° NNW 22:55:56 34° NW 22:55:56 34° NW
NOSS 3-2 (C) 3.9 23:00:17 10° NNW 23:08:08 85° ENE 23:09:03 73° SE
Cosmos 2297 4.1 23:16:15 60° NNW 23:16:15 60° NNW 23:21:07 10° NNE
ATLAS 5 CENTAUR R/B 3.3 23:16:49 30° NW 23:16:49 30° NW 23:20:45 10° N
Cosmos 2082 Rocket 2.8 23:20:43 10° NNW 23:25:12 55° N 23:25:12 55° N
Cosmos 1833 Rocket 3.3 23:25:34 10° NNW 23:29:47 53° NNW 23:29:47 53° NNW
Terra 4.1 23:32:38 17° WNW 23:32:38 17° WNW 23:34:40 10° NW
Nadezhda 1 Rocket 4.3 23:39:38 65° NNE 23:39:38 65° NNE 23:45:03 10° N
ADEOS Rocket 3.3 23:32:44 10° NNE 23:37:49 63° NE 23:37:49 63° NE
CZ-2C R/B 4.3 23:35:23 10° NNW 23:39:42 25° WNW 23:40:07 25° WNW
CENTAUR R/B 3.2 23:32:15 10° NNW 23:40:26 70° ENE 23:41:24 65° E
Cosmos 1943 Rocket 4.1 23:49:40 19° ENE 23:49:40 19° ENE 23:51:37 10° NE
USA 234 3.7 23:46:23 10° NE 23:51:10 50° ENE 23:51:10 50° ENE
